| time (UTC) | temp C | wind direction | speed KPH | gust KPH | rain 1hr cm | rain 24hr cm | rain mn cm | humidity % | barometer mb |
| 20260510164005 | 22 | 32 | 1.6 | 4.8 | 0.00 | 0.00 | 0.00 | 46 | 1018.4 |
| 20260510163005 | 22 | 35 | 3.2 | 6.4 | 0.00 | 0.00 | 0.00 | 47 | 1018.4 |
| 20260510162506 | 21 | 25 | 1.6 | 6.4 | 0.00 | 0.00 | 0.00 | 49 | 1018.5 |
| 20260510162004 | 21 | 345 | 1.6 | 3.2 | 0.00 | 0.00 | 0.00 | 50 | 1018.5 |
| 20260510161005 | 21 | 341 | 1.6 | 6.4 | 0.00 | 0.00 | 0.00 | 50 | 1018.2 |
| 20260510160505 | 21 | 21 | 0.0 | 4.8 | 0.00 | 0.00 | 0.00 | 50 | 1018.3 |
| 20260510160005 | 20 | 45 | 1.6 | 1.6 | 0.00 | 0.00 | 0.00 | 51 | 1018.2 |
| 20260510155505 | 20 | 69 | 0.0 | 4.8 | 0.00 | 0.00 | 0.00 | 51 | 1018.3 |
| 20260510155005 | 20 | 0 | 0.0 | 0.0 | 0.00 | 0.00 | 0.00 | 52 | 1018.3 |
| 20260510154005 | 20 | 0 | 0.0 | 0.0 | 0.00 | 0.00 | 0.00 | 50 | 1018.4 |
| 20260510153505 | 20 | 0 | 0.0 | 0.0 | 0.00 | 0.00 | 0.00 | 51 | 1018.4 |
| 20260510153005 | 19 | 0 | 0.0 | 0.0 | 0.00 | 0.00 | 0.00 | 50 | 1018.4 |
| 20260510151505 | 18 | 0 | 0.0 | 0.0 | 0.00 | 0.00 | 0.00 | 53 | 1018.4 |
| 20260510151005 | 17 | 162 | 0.0 | 1.6 | 0.00 | 0.00 | 0.00 | 53 | 1018.4 |
| 20260510150506 | 17 | 162 | 0.0 | 1.6 | 0.00 | 0.00 | 0.00 | 55 | 1018.5 |
| 20260510150006 | 17 | 0 | 0.0 | 0.0 | 0.00 | 0.00 | 0.00 | 56 | 1018.4 |
| 20260510145505 | 16 | 0 | 0.0 | 0.0 | 0.00 | 0.00 | 0.00 | 58 | 1018.4 |
| 20260510145005 | 15 | 0 | 0.0 | 0.0 | 0.00 | 0.00 | 0.00 | 60 | 1018.5 |
| 20260510144505 | 15 | 0 | 0.0 | 0.0 | 0.00 | 0.00 | 0.00 | 61 | 1018.5 |
| 20260510144005 | 15 | 161 | 0.0 | 1.6 | 0.00 | 0.00 | 0.00 | 62 | 1018.5 |
| 20260510142503 | 13 | 170 | 0.0 | 1.6 | 0.00 | 0.00 | 0.00 | 63 | 1018.0 |
| 20260510142002 | 13 | 170 | 0.0 | 1.6 | 0.00 | 0.00 | 0.00 | 63 | 1018.0 |
| 20260510140503 | 13 | 170 | 0.0 | 1.6 | 0.00 | 0.00 | 0.00 | 63 | 1018.0 |
| 20260510140003 | 13 | 170 | 0.0 | 1.6 | 0.00 | 0.00 | 0.00 | 63 | 1018.0 |
| 20260510135503 | 13 | 170 | 0.0 | 1.6 | 0.00 | 0.00 | 0.00 | 63 | 1018.0 |
| 20260510135002 | 13 | 170 | 0.0 | 1.6 | 0.00 | 0.00 | 0.00 | 63 | 1018.0 |
| 20260510134503 | 13 | 170 | 0.0 | 1.6 | 0.00 | 0.00 | 0.00 | 63 | 1018.0 |
| 20260510132503 | 13 | 170 | 0.0 | 1.6 | 0.00 | 0.00 | 0.00 | 63 | 1018.0 |
| 20260510132002 | 13 | 170 | 0.0 | 1.6 | 0.00 | 0.00 | 0.00 | 63 | 1018.0 |
| 20260510131503 | 13 | 170 | 0.0 | 1.6 | 0.00 | 0.00 | 0.00 | 63 | 1018.0 |
| 20260510131002 | 13 | 170 | 0.0 | 1.6 | 0.00 | 0.00 | 0.00 | 63 | 1018.0 |
| 20260510130503 | 13 | 170 | 0.0 | 1.6 | 0.00 | 0.00 | 0.00 | 63 | 1018.0 |
| 20260510130003 | 13 | 170 | 0.0 | 1.6 | 0.00 | 0.00 | 0.00 | 63 | 1018.0 |
| 20260510125503 | 13 | 170 | 0.0 | 1.6 | 0.00 | 0.00 | 0.00 | 63 | 1018.0 |
| 20260510125002 | 13 | 170 | 0.0 | 1.6 | 0.00 | 0.00 | 0.00 | 63 | 1018.0 |
| 20260510124503 | 13 | 170 | 0.0 | 1.6 | 0.00 | 0.00 | 0.00 | 63 | 1018.0 |
| 20260510124004 | 13 | 170 | 0.0 | 1.6 | 0.00 | 0.00 | 0.00 | 63 | 1018.0 |
| 20260510123503 | 13 | 170 | 0.0 | 1.6 | 0.00 | 0.00 | 0.00 | 63 | 1018.0 |
| 20260510123002 | 13 | 170 | 0.0 | 1.6 | 0.00 | 0.00 | 0.00 | 63 | 1018.0 |
| 20260510122003 | 13 | 170 | 0.0 | 1.6 | 0.00 | 0.00 | 0.00 | 63 | 1018.0 |
| 20260510121002 | 13 | 170 | 0.0 | 1.6 | 0.00 | 0.00 | 0.00 | 63 | 1018.0 |
| 20260510120503 | 13 | 170 | 0.0 | 1.6 | 0.00 | 0.00 | 0.00 | 63 | 1018.0 |
| 20260510120002 | 13 | 170 | 0.0 | 1.6 | 0.00 | 0.00 | 0.00 | 63 | 1018.0 |
| 20260510115503 | 13 | 170 | 0.0 | 1.6 | 0.00 | 0.00 | 0.00 | 63 | 1018.0 |
| 20260510115002 | 13 | 170 | 0.0 | 1.6 | 0.00 | 0.00 | 0.00 | 63 | 1018.0 |
| 20260510114503 | 13 | 170 | 0.0 | 1.6 | 0.00 | 0.00 | 0.00 | 63 | 1018.0 |
| 20260510114002 | 13 | 170 | 0.0 | 1.6 | 0.00 | 0.00 | 0.00 | 63 | 1018.0 |
| 20260510113503 | 13 | 170 | 0.0 | 1.6 | 0.00 | 0.00 | 0.00 | 63 | 1018.0 |
| 20260510113003 | 13 | 170 | 0.0 | 1.6 | 0.00 | 0.00 | 0.00 | 63 | 1018.0 |
| 20260510112004 | 13 | 170 | 0.0 | 1.6 | 0.00 | 0.00 | 0.00 | 63 | 1018.0 |
| 20260510111502 | 13 | 170 | 0.0 | 1.6 | 0.00 | 0.00 | 0.00 | 63 | 1018.0 |
| 20260510111003 | 13 | 170 | 0.0 | 1.6 | 0.00 | 0.00 | 0.00 | 63 | 1018.0 |
| 20260510110502 | 13 | 170 | 0.0 | 1.6 | 0.00 | 0.00 | 0.00 | 63 | 1018.0 |
| 20260510104003 | 13 | 170 | 0.0 | 1.6 | 0.00 | 0.00 | 0.00 | 63 | 1018.0 |
| 20260510103503 | 13 | 170 | 0.0 | 1.6 | 0.00 | 0.00 | 0.00 | 63 | 1018.0 |
| 20260510103003 | 13 | 170 | 0.0 | 1.6 | 0.00 | 0.00 | 0.00 | 63 | 1018.0 |
| 20260510102503 | 13 | 170 | 0.0 | 1.6 | 0.00 | 0.00 | 0.00 | 63 | 1018.0 |
| 20260510102003 | 13 | 170 | 0.0 | 1.6 | 0.00 | 0.00 | 0.00 | 63 | 1018.0 |
| 20260510101503 | 13 | 170 | 0.0 | 1.6 | 0.00 | 0.00 | 0.00 | 63 | 1018.0 |
| 20260510101003 | 13 | 170 | 0.0 | 1.6 | 0.00 | 0.00 | 0.00 | 63 | 1018.0 |
| 20260510095503 | 13 | 170 | 0.0 | 1.6 | 0.00 | 0.00 | 0.00 | 63 | 1018.0 |
| 20260510094503 | 13 | 170 | 0.0 | 1.6 | 0.00 | 0.00 | 0.00 | 63 | 1018.0 |
| 20260510094002 | 13 | 170 | 0.0 | 1.6 | 0.00 | 0.00 | 0.00 | 63 | 1018.0 |
| 20260510093503 | 13 | 170 | 0.0 | 1.6 | 0.00 | 0.00 | 0.00 | 63 | 1018.0 |
| 20260510092503 | 13 | 170 | 0.0 | 1.6 | 0.00 | 0.00 | 0.00 | 63 | 1018.0 |
| 20260510092002 | 13 | 170 | 0.0 | 1.6 | 0.00 | 0.00 | 0.00 | 63 | 1018.0 |
| 20260510091503 | 13 | 170 | 0.0 | 1.6 | 0.00 | 0.00 | 0.00 | 63 | 1018.0 |
| 20260510091002 | 13 | 170 | 0.0 | 1.6 | 0.00 | 0.00 | 0.00 | 63 | 1018.0 |
| 20260510090503 | 13 | 170 | 0.0 | 1.6 | 0.00 | 0.00 | 0.00 | 63 | 1018.0 |
| 20260510090002 | 13 | 170 | 0.0 | 1.6 | 0.00 | 0.00 | 0.00 | 63 | 1018.0 |
| 20260510085503 | 13 | 170 | 0.0 | 1.6 | 0.00 | 0.00 | 0.00 | 63 | 1018.0 |
| 20260510085002 | 13 | 170 | 0.0 | 1.6 | 0.00 | 0.00 | 0.00 | 63 | 1018.0 |
| 20260510084503 | 13 | 170 | 0.0 | 1.6 | 0.00 | 0.00 | 0.00 | 63 | 1018.0 |
| 20260510084003 | 13 | 170 | 0.0 | 1.6 | 0.00 | 0.00 | 0.00 | 63 | 1018.0 |
| 20260510083503 | 13 | 170 | 0.0 | 1.6 | 0.00 | 0.00 | 0.00 | 63 | 1018.0 |
| 20260510083003 | 13 | 170 | 0.0 | 1.6 | 0.00 | 0.00 | 0.00 | 63 | 1018.0 |
| 20260510082503 | 13 | 170 | 0.0 | 1.6 | 0.00 | 0.00 | 0.00 | 63 | 1018.0 |
| 20260510081003 | 13 | 170 | 0.0 | 1.6 | 0.00 | 0.00 | 0.00 | 63 | 1018.0 |
| 20260510080502 | 13 | 170 | 0.0 | 1.6 | 0.00 | 0.00 | 0.00 | 63 | 1018.0 |
| 20260510080003 | 13 | 170 | 0.0 | 1.6 | 0.00 | 0.00 | 0.00 | 63 | 1018.0 |
| 20260510075502 | 13 | 170 | 0.0 | 1.6 | 0.00 | 0.00 | 0.00 | 63 | 1018.0 |
| 20260510075003 | 13 | 170 | 0.0 | 1.6 | 0.00 | 0.00 | 0.00 | 63 | 1018.0 |
| 20260510074503 | 13 | 170 | 0.0 | 1.6 | 0.00 | 0.00 | 0.00 | 63 | 1018.0 |
| 20260510074003 | 13 | 170 | 0.0 | 1.6 | 0.00 | 0.00 | 0.00 | 63 | 1018.0 |
| 20260510073503 | 13 | 170 | 0.0 | 1.6 | 0.00 | 0.00 | 0.00 | 63 | 1018.0 |
| 20260510072503 | 13 | 170 | 0.0 | 1.6 | 0.00 | 0.00 | 0.00 | 63 | 1018.0 |
| 20260510072003 | 13 | 171 | 0.0 | 1.6 | 0.00 | 0.00 | 0.00 | 63 | 1017.9 |
| 20260510071503 | 13 | 0 | 0.0 | 0.0 | 0.00 | 0.00 | 0.00 | 63 | 1017.9 |
| 20260510071003 | 13 | 0 | 0.0 | 0.0 | 0.00 | 0.00 | 0.00 | 63 | 1017.9 |
| 20260510070503 | 13 | 0 | 0.0 | 0.0 | 0.00 | 0.00 | 0.00 | 63 | 1018.0 |
| 20260510070004 | 14 | 171 | 0.0 | 1.6 | 0.00 | 0.00 | 0.00 | 63 | 1018.1 |
| 20260510065503 | 14 | 0 | 0.0 | 0.0 | 0.00 | 0.00 | 0.00 | 63 | 1018.0 |
| 20260510065004 | 14 | 171 | 0.0 | 1.6 | 0.00 | 0.00 | 0.00 | 63 | 1018.0 |
| 20260510064503 | 14 | 171 | 0.0 | 1.6 | 0.00 | 0.00 | 0.00 | 63 | 1018.0 |
| 20260510064003 | 14 | 172 | 0.0 | 3.2 | 0.00 | 0.00 | 0.00 | 64 | 1018.0 |
| 20260510063503 | 14 | 0 | 0.0 | 0.0 | 0.00 | 0.00 | 0.00 | 64 | 1018.0 |
| 20260510062003 | 15 | 0 | 0.0 | 0.0 | 0.00 | 0.00 | 0.00 | 62 | 1018.0 |
| 20260510061503 | 15 | 0 | 0.0 | 0.0 | 0.00 | 0.00 | 0.00 | 61 | 1018.0 |
| 20260510061003 | 15 | 0 | 0.0 | 0.0 | 0.00 | 0.00 | 0.00 | 59 | 1018.0 |
| 20260510060503 | 15 | 0 | 0.0 | 0.0 | 0.00 | 0.00 | 0.00 | 58 | 1018.1 |
| 20260510055503 | 15 | 158 | 1.6 | 6.4 | 0.00 | 0.00 | 0.00 | 56 | 1017.9 |
| 20260510055002 | 15 | 162 | 1.6 | 3.2 | 0.00 | 0.00 | 0.00 | 56 | 1018.0 |
| 20260510054503 | 15 | 165 | 1.6 | 4.8 | 0.00 | 0.00 | 0.00 | 57 | 1017.9 |
| 20260510053004 | 16 | 162 | 0.0 | 4.8 | 0.00 | 0.00 | 0.00 | 57 | 1018.0 |
| 20260510052503 | 16 | 0 | 0.0 | 0.0 | 0.00 | 0.00 | 0.00 | 58 | 1017.9 |
| 20260510052003 | 16 | 0 | 0.0 | 0.0 | 0.00 | 0.00 | 0.00 | 58 | 1017.8 |
| 20260510051503 | 16 | 0 | 0.0 | 0.0 | 0.00 | 0.00 | 0.00 | 57 | 1017.9 |
| 20260510051003 | 16 | 0 | 0.0 | 0.0 | 0.00 | 0.00 | 0.00 | 57 | 1017.9 |
| 20260510050503 | 16 | 173 | 1.6 | 3.2 | 0.00 | 0.00 | 0.00 | 57 | 1017.9 |
| 20260510050003 | 16 | 170 | 1.6 | 6.4 | 0.00 | 0.00 | 0.00 | 57 | 1017.9 |
| 20260510045503 | 16 | 170 | 0.0 | 6.4 | 0.00 | 0.00 | 0.00 | 56 | 1018.0 |
| 20260510045003 | 17 | 0 | 0.0 | 0.0 | 0.00 | 0.00 | 0.00 | 56 | 1017.8 |
| 20260510044503 | 17 | 0 | 0.0 | 0.0 | 0.00 | 0.00 | 0.00 | 55 | 1017.9 |
| 20260510044003 | 17 | 0 | 0.0 | 0.0 | 0.00 | 0.00 | 0.00 | 55 | 1017.8 |
| 20260510043503 | 17 | 0 | 0.0 | 0.0 | 0.00 | 0.00 | 0.00 | 55 | 1017.7 |
| 20260510043003 | 17 | 0 | 0.0 | 0.0 | 0.00 | 0.00 | 0.00 | 54 | 1017.6 |
| 20260510042504 | 17 | 0 | 0.0 | 0.0 | 0.00 | 0.00 | 0.00 | 54 | 1017.6 |
| 20260510042003 | 18 | 0 | 0.0 | 0.0 | 0.00 | 0.00 | 0.00 | 54 | 1017.5 |
| 20260510041503 | 18 | 0 | 0.0 | 0.0 | 0.00 | 0.00 | 0.00 | 54 | 1017.5 |
| 20260510041003 | 18 | 0 | 1.6 | 0.0 | 0.00 | 0.00 | 0.00 | 54 | 1017.4 |
| 20260510040503 | 18 | 252 | 3.2 | 4.8 | 0.00 | 0.00 | 0.00 | 54 | 1017.6 |
| 20260510040003 | 18 | 252 | 4.8 | 4.8 | 0.00 | 0.00 | 0.00 | 54 | 1017.5 |
| 20260510035503 | 18 | 259 | 4.8 | 6.4 | 0.00 | 0.00 | 0.00 | 53 | 1017.5 |
| 20260510035004 | 18 | 267 | 4.8 | 6.4 | 0.00 | 0.00 | 0.00 | 52 | 1017.4 |
| 20260510034503 | 19 | 263 | 4.8 | 6.4 | 0.00 | 0.00 | 0.00 | 52 | 1017.4 |
| 20260510034003 | 19 | 260 | 4.8 | 11.3 | 0.00 | 0.00 | 0.00 | 51 | 1017.5 |
| 20260510033503 | 19 | 252 | 6.4 | 8.0 | 0.00 | 0.00 | 0.00 | 50 | 1017.4 |
| 20260510033005 | 19 | 253 | 6.4 | 8.0 | 0.00 | 0.00 | 0.00 | 50 | 1017.4 |
| 20260510032503 | 20 | 249 | 8.0 | 8.0 | 0.00 | 0.00 | 0.00 | 49 | 1017.3 |
| 20260510032003 | 20 | 260 | 11.3 | 11.3 | 0.00 | 0.00 | 0.00 | 49 | 1017.2 |
| 20260510031503 | 20 | 269 | 12.9 | 16.1 | 0.00 | 0.00 | 0.00 | 48 | 1017.1 |
| 20260510031003 | 20 | 261 | 9.7 | 16.1 | 0.00 | 0.00 | 0.00 | 47 | 1016.9 |
| 20260510030503 | 20 | 266 | 9.7 | 11.3 | 0.00 | 0.00 | 0.00 | 47 | 1017.0 |
| 20260510030004 | 20 | 257 | 9.7 | 14.5 | 0.00 | 0.00 | 0.00 | 46 | 1016.8 |
| 20260510025504 | 20 | 268 | 9.7 | 12.9 | 0.00 | 0.00 | 0.00 | 46 | 1016.8 |
| 20260510024005 | 21 | 250 | 9.7 | 14.5 | 0.00 | 0.00 | 0.00 | 46 | 1016.8 |
| 20260510023503 | 21 | 249 | 4.8 | 12.9 | 0.00 | 0.00 | 0.00 | 47 | 1016.8 |
| 20260510023004 | 21 | 259 | 4.8 | 16.1 | 0.00 | 0.00 | 0.00 | 49 | 1016.7 |
| 20260510022503 | 21 | 262 | 8.0 | 9.7 | 0.00 | 0.00 | 0.00 | 50 | 1016.7 |
| 20260510022003 | 21 | 271 | 6.4 | 14.5 | 0.00 | 0.00 | 0.00 | 49 | 1016.7 |
| 20260510021503 | 21 | 315 | 6.4 | 12.9 | 0.00 | 0.00 | 0.00 | 48 | 1016.7 |
| 20260510021003 | 21 | 313 | 8.0 | 9.7 | 0.00 | 0.00 | 0.00 | 48 | 1016.5 |
| 20260510020503 | 21 | 290 | 9.7 | 16.1 | 0.00 | 0.00 | 0.00 | 48 | 1016.5 |
| 20260510020004 | 21 | 301 | 11.3 | 16.1 | 0.00 | 0.00 | 0.00 | 48 | 1016.5 |
| 20260510015503 | 21 | 305 | 12.9 | 16.1 | 0.00 | 0.00 | 0.00 | 48 | 1016.4 |
| 20260510015003 | 22 | 305 | 12.9 | 19.3 | 0.00 | 0.00 | 0.00 | 48 | 1016.4 |
| 20260510014504 | 22 | 311 | 11.3 | 22.5 | 0.00 | 0.00 | 0.00 | 48 | 1016.4 |
| 20260510014003 | 22 | 306 | 12.9 | 16.1 | 0.00 | 0.00 | 0.00 | 48 | 1016.4 |
| 20260510013503 | 22 | 310 | 12.9 | 17.7 | 0.00 | 0.00 | 0.00 | 48 | 1016.2 |
| 20260510013003 | 22 | 301 | 14.5 | 20.9 | 0.00 | 0.00 | 0.00 | 48 | 1016.2 |
| 20260510012504 | 22 | 299 | 14.5 | 19.3 | 0.00 | 0.00 | 0.00 | 48 | 1016.2 |
| 20260510012003 | 22 | 318 | 14.5 | 20.9 | 0.00 | 0.00 | 0.00 | 47 | 1016.2 |
| 20260510011504 | 22 | 307 | 14.5 | 22.5 | 0.00 | 0.00 | 0.00 | 47 | 1016.2 |
| 20260510011003 | 22 | 312 | 12.9 | 20.9 | 0.00 | 0.00 | 0.00 | 46 | 1016.2 |
| 20260510010503 | 22 | 312 | 14.5 | 22.5 | 0.00 | 0.00 | 0.00 | 46 | 1016.2 |
| 20260510010004 | 22 | 313 | 14.5 | 19.3 | 0.00 | 0.00 | 0.00 | 45 | 1016.2 |
| 20260510005503 | 22 | 314 | 14.5 | 25.7 | 0.00 | 0.00 | 0.00 | 45 | 1016.1 |
| 20260510004004 | 23 | 298 | 14.5 | 19.3 | 0.00 | 0.00 | 0.00 | 45 | 1016.1 |
| 20260510003503 | 23 | 316 | 12.9 | 20.9 | 0.00 | 0.00 | 0.00 | 44 | 1016.0 |
| 20260510003004 | 23 | 315 | 16.1 | 20.9 | 0.00 | 0.00 | 0.00 | 44 | 1016.1 |
| 20260510002503 | 23 | 313 | 19.3 | 22.5 | 0.00 | 0.00 | 0.00 | 43 | 1016.1 |
| 20260510002003 | 23 | 311 | 17.7 | 24.1 | 0.00 | 0.00 | 0.00 | 42 | 1016.1 |
| 20260510001504 | 23 | 319 | 17.7 | 24.1 | 0.00 | 0.00 | 0.00 | 42 | 1016.0 |
| 20260510001003 | 23 | 310 | 17.7 | 24.1 | 0.00 | 0.00 | 0.00 | 42 | 1016.1 |
| 20260510000504 | 23 | 311 | 17.7 | 27.4 | 0.00 | 0.00 | 0.00 | 42 | 1016.1 |
| 20260510000004 | 23 | 315 | 17.7 | 25.7 | 0.00 | 0.00 | 0.00 | 42 | 1016.1 |
| 20260509235503 | 23 | 315 | 19.3 | 27.4 | 0.00 | 0.00 | 0.00 | 42 | 1016.1 |
| 20260509235003 | 23 | 320 | 17.7 | 29.0 | 0.00 | 0.00 | 0.00 | 42 | 1016.1 |
| 20260509234503 | 23 | 308 | 17.7 | 27.4 | 0.00 | 0.00 | 0.00 | 42 | 1016.0 |
| 20260509233503 | 23 | 311 | 17.7 | 29.0 | 0.00 | 0.00 | 0.00 | 42 | 1016.1 |
| 20260509233004 | 23 | 311 | 17.7 | 24.1 | 0.00 | 0.00 | 0.00 | 43 | 1016.0 |
| 20260509232004 | 23 | 309 | 19.3 | 22.5 | 0.00 | 0.00 | 0.00 | 42 | 1016.0 |
| 20260509230504 | 23 | 311 | 17.7 | 29.0 | 0.00 | 0.00 | 0.00 | 42 | 1016.1 |
| 20260509230004 | 23 | 319 | 16.1 | 25.7 | 0.00 | 0.00 | 0.00 | 42 | 1016.1 |
| 20260509225503 | 23 | 319 | 16.1 | 27.4 | 0.00 | 0.00 | 0.00 | 42 | 1016.2 |
| 20260509225006 | 23 | 314 | 17.7 | 24.1 | 0.00 | 0.00 | 0.00 | 41 | 1016.1 |
| 20260509224503 | 23 | 318 | 17.7 | 29.0 | 0.00 | 0.00 | 0.00 | 43 | 1016.2 |
| 20260509224004 | 23 | 315 | 19.3 | 24.1 | 0.00 | 0.00 | 0.00 | 42 | 1016.2 |
| 20260509223004 | 23 | 314 | 19.3 | 30.6 | 0.00 | 0.00 | 0.00 | 42 | 1016.3 |
| 20260509222003 | 23 | 322 | 17.7 | 32.2 | 0.00 | 0.00 | 0.00 | 42 | 1016.3 |
| 20260509221504 | 23 | 315 | 17.7 | 25.7 | 0.00 | 0.00 | 0.00 | 42 | 1016.4 |
| 20260509220504 | 23 | 321 | 17.7 | 22.5 | 0.00 | 0.00 | 0.00 | 42 | 1016.6 |
| 20260509220004 | 23 | 317 | 17.7 | 24.1 | 0.00 | 0.00 | 0.00 | 42 | 1016.5 |
| 20260509215504 | 23 | 319 | 17.7 | 22.5 | 0.00 | 0.00 | 0.00 | 42 | 1016.7 |
| 20260509215003 | 23 | 319 | 19.3 | 32.2 | 0.00 | 0.00 | 0.00 | 42 | 1016.7 |
| 20260509213503 | 23 | 320 | 17.7 | 30.6 | 0.00 | 0.00 | 0.00 | 43 | 1016.8 |
| 20260509213004 | 23 | 320 | 17.7 | 29.0 | 0.00 | 0.00 | 0.00 | 44 | 1016.8 |
| 20260509212502 | 23 | 320 | 17.7 | 27.4 | 0.00 | 0.00 | 0.00 | 43 | 1016.9 |
| 20260509212002 | 23 | 321 | 17.7 | 30.6 | 0.00 | 0.00 | 0.00 | 43 | 1017.0 |
| 20260509211002 | 23 | 322 | 17.7 | 29.0 | 0.00 | 0.00 | 0.00 | 44 | 1016.9 |
| 20260509210502 | 23 | 321 | 17.7 | 27.4 | 0.00 | 0.00 | 0.00 | 44 | 1017.0 |
| 20260509210003 | 23 | 319 | 16.1 | 24.1 | 0.00 | 0.00 | 0.00 | 45 | 1017.0 |
| 20260509205503 | 23 | 318 | 16.1 | 20.9 | 0.00 | 0.00 | 0.00 | 44 | 1017.1 |
| 20260509205003 | 23 | 317 | 16.1 | 25.7 | 0.00 | 0.00 | 0.00 | 44 | 1017.0 |
| 20260509204502 | 23 | 323 | 16.1 | 29.0 | 0.00 | 0.00 | 0.00 | 44 | 1017.1 |
| 20260509204002 | 23 | 321 | 14.5 | 32.2 | 0.00 | 0.00 | 0.00 | 44 | 1017.1 |
| 20260509203503 | 23 | 322 | 12.9 | 25.7 | 0.00 | 0.00 | 0.00 | 43 | 1017.1 |
| 20260509203002 | 23 | 319 | 12.9 | 20.9 | 0.00 | 0.00 | 0.00 | 44 | 1017.3 |
| 20260509202502 | 23 | 323 | 14.5 | 24.1 | 0.00 | 0.00 | 0.00 | 45 | 1017.3 |
| 20260509202002 | 23 | 320 | 14.5 | 24.1 | 0.00 | 0.00 | 0.00 | 44 | 1017.2 |
| 20260509201502 | 23 | 323 | 14.5 | 22.5 | 0.00 | 0.00 | 0.00 | 45 | 1017.2 |
| 20260509200503 | 22 | 319 | 16.1 | 20.9 | 0.00 | 0.00 | 0.00 | 45 | 1017.3 |
| 20260509200002 | 22 | 317 | 16.1 | 27.4 | 0.00 | 0.00 | 0.00 | 45 | 1017.2 |
| 20260509195502 | 23 | 321 | 16.1 | 25.7 | 0.00 | 0.00 | 0.00 | 44 | 1017.4 |
| 20260509195002 | 22 | 319 | 16.1 | 27.4 | 0.00 | 0.00 | 0.00 | 46 | 1017.4 |
| 20260509194003 | 22 | 320 | 17.7 | 24.1 | 0.00 | 0.00 | 0.00 | 46 | 1017.4 |
| 20260509193503 | 22 | 322 | 17.7 | 25.7 | 0.00 | 0.00 | 0.00 | 46 | 1017.5 |
| 20260509193003 | 22 | 318 | 17.7 | 25.7 | 0.00 | 0.00 | 0.00 | 46 | 1017.6 |
| 20260509192002 | 22 | 316 | 16.1 | 24.1 | 0.00 | 0.00 | 0.00 | 46 | 1017.6 |
| 20260509191502 | 22 | 318 | 16.1 | 25.7 | 0.00 | 0.00 | 0.00 | 46 | 1017.6 |
| 20260509191002 | 22 | 320 | 16.1 | 22.5 | 0.00 | 0.00 | 0.00 | 46 | 1017.7 |
| 20260509190502 | 22 | 324 | 14.5 | 25.7 | 0.00 | 0.00 | 0.00 | 45 | 1017.7 |
| 20260509190002 | 22 | 325 | 12.9 | 24.1 | 0.00 | 0.00 | 0.00 | 45 | 1017.7 |
| 20260509185502 | 22 | 323 | 11.3 | 19.3 | 0.00 | 0.00 | 0.00 | 46 | 1017.7 |
| 20260509185004 | 22 | 329 | 11.3 | 22.5 | 0.00 | 0.00 | 0.00 | 46 | 1017.8 |
| 20260509184502 | 22 | 325 | 11.3 | 17.7 | 0.00 | 0.00 | 0.00 | 45 | 1017.9 |
| 20260509184002 | 22 | 320 | 9.7 | 20.9 | 0.00 | 0.00 | 0.00 | 45 | 1018.0 |
| 20260509183502 | 22 | 325 | 9.7 | 16.1 | 0.00 | 0.00 | 0.00 | 45 | 1018.0 |
| 20260509182502 | 21 | 324 | 9.7 | 16.1 | 0.00 | 0.00 | 0.00 | 46 | 1018.2 |
| 20260509182002 | 21 | 323 | 11.3 | 19.3 | 0.00 | 0.00 | 0.00 | 44 | 1018.2 |
| 20260509181503 | 21 | 318 | 12.9 | 20.9 | 0.00 | 0.00 | 0.00 | 45 | 1018.3 |
| 20260509181002 | 21 | 322 | 11.3 | 19.3 | 0.00 | 0.00 | 0.00 | 45 | 1018.0 |
| 20260509180503 | 21 | 319 | 11.3 | 19.3 | 0.00 | 0.00 | 0.00 | 45 | 1018.1 |
| 20260509180003 | 21 | 323 | 11.3 | 17.7 | 0.00 | 0.00 | 0.00 | 45 | 1018.1 |
| 20260509175503 | 20 | 322 | 12.9 | 19.3 | 0.00 | 0.00 | 0.00 | 44 | 1018.1 |
| 20260509175002 | 20 | 322 | 12.9 | 22.5 | 0.00 | 0.00 | 0.00 | 46 | 1018.1 |
| 20260509174503 | 20 | 323 | 11.3 | 20.9 | 0.00 | 0.00 | 0.00 | 45 | 1018.1 |
| 20260509173502 | 20 | 316 | 14.5 | 20.9 | 0.00 | 0.00 | 0.00 | 47 | 1018.1 |
| 20260509173002 | 20 | 320 | 12.9 | 22.5 | 0.00 | 0.00 | 0.00 | 47 | 1018.1 |
| 20260509172503 | 20 | 317 | 11.3 | 19.3 | 0.00 | 0.00 | 0.00 | 47 | 1018.1 |
| 20260509172002 | 20 | 321 | 11.3 | 22.5 | 0.00 | 0.00 | 0.00 | 47 | 1018.1 |
| 20260509171002 | 20 | 319 | 11.3 | 20.9 | 0.00 | 0.00 | 0.00 | 48 | 1018.0 |
| 20260509170502 | 19 | 316 | 9.7 | 19.3 | 0.00 | 0.00 | 0.00 | 47 | 1018.0 |
| 20260509170003 | 19 | 319 | 11.3 | 16.1 | 0.00 | 0.00 | 0.00 | 47 | 1018.0 |
| 20260509165502 | 19 | 320 | 12.9 | 19.3 | 0.00 | 0.00 | 0.00 | 47 | 1018.1 |
| 20260509165002 | 19 | 314 | 12.9 | 17.7 | 0.00 | 0.00 | 0.00 | 47 | 1018.2 |
| 20260509164503 | 19 | 319 | 12.9 | 24.1 | 0.00 | 0.00 | 0.00 | 47 | 1018.2 |